User: anonymous   Login
Location: Newark
(13.8625°N, 100.5144°E)
Time: 01:43:16
(UTC+00:00)
Language:

SPROUT - Orbit

View from above orbital plane
View from above orbital plane
View from above satellite
View from above satellite

Ground track
Ground track

The orbit data is extracted from the following two-line orbital elements,

1 39770U 14029E   21216.54135005  .00001080  00000-0  12202-3 0  9996
2 39770  97.9194 327.7864 0009935  54.5338 305.6810 14.88546417390494
Epoch (UTC): 04 August 2021 12:59:32
Eccentricity: 0.0009935
inclination: 97.9194°
perigee height: 595 km
apogee height: 609 km
right ascension of ascending node: 327.7864°
argument of perigee: 54.5338°
revolutions per day: 14.88546417
mean anomaly at epoch: 305.6810°
orbit number at epoch: 39049

The dashed part of the orbit path shows where the satellite is in the earth's shadow,  

DLR